THORAD AGENA D DEB, 4753

Orbit data source: Space-Track

THORAD AGENA D DEB, 4753 is space debris in SSO originally from a launch on Wed, 08 Apr 1970 UTC launched from the Air Force Western Test Range (AFWTR). Debris objects in space refer to the collection of defunct objects orbiting the Earth. Examples of debris include non-operational satellites, rocket bodies, and fragments generated from explosions, collisions, or faulty payload assembly.

Loading next visibility...
Identifier
4753, 1970-025DB
Orbit
SSO
Country
Flag of USUS
Related business
Manufacturer
Unknown
Mission
Spacecraft
Bus & Motor
Unknown
Mass
Unknown
Launch date (UTC)
1970-04-08 (56 years ago)
Launch vehicle
Unknown
Launch site
Air Force Western Test Range (AFWTR)
Object type
Payload
Rocket body
Debris
Shape & HBR
Unknown shape, 0.2 m
Radar Cross Section
Small (<0.1 m²)

Expand to show TLE details & history
Last TLE update: 9 hours ago

TLE from 9 hours ago
0 THORAD AGENA D DEB
1  4753U 70025DB  26036.31376313  .00001474  00000-0  13560-2 0  9990
2  4753  99.9808 159.1371 0006693 275.5612  84.4777 13.84627171784593
Epoch: 2026-02-05T07:31Z
TLE epoch observation values (Epoch: 2026-02-05T07:31:49.134Z)
Latitude
-0.00004°
Longitude
-89.28539°
Altitude
949.875 km
Speed
7.377 km/s
True Right ascension
10h 36m 32s
True Declination
0° 00' 00"
Sunlit
Object was in full shadow at epoch
Visualization orbit readout
Latitude
Unknown
Longitude
Unknown
Altitude
Unknown
Speed
Unknown
Apparent Right ascension
Unknown
Apparent Declination
Unknown
Sunlit
N/A
Visualization observer readout
Local Sidereal Time
18:04:53
Azimuth
Unknown
Elevation
Unknown
Doppler factor
Unknown
Orbital elements
Apogee altitude
949.692 km
Perigee altitude
939.889 km
Semi-major axis
7,322.928 km
Eccentricity
0.00067
Inclination
99.9808°
RAAN
159.1371°
Arg. of periapsis
275.5612°
True anomaly
84.55405°
Mean anomaly
84.4777°
Eccentric anomaly
84.51587°
Mean motion
3.46351 °/min
Orbital period
103.94 mins
BSTAR
0.001356
Loading maneuver chart data...
Computing Atmospheric mass density...

Documentation

Showing up to 5 results
|